Humidity-temperature Sensor

Selected Measurement Type: Relative Humidity

 
Relative Humidity [%]     6 entries per hour
Showing data from 10/19/2015 (00:00:00 Z) to 10/18/2015 (00:01:00 Z)
Previous Next [ Day | 3-Days | 7-Days ]
First Last
Prev [ Day | 3-Days | 7-Days ] Next
First Last

Start Time:     :
End Time:     :     
Time (in GMT) :00 :50 :40 :30 :20 :10
Previous Next [ Day | 3-Days | 7-Days ]
First Last
Prev [ Day | 3-Days | 7-Days ] Next
First Last


123 => good data
MM => data is determined as missing
-- => data not received/configured
Back to Top Back to Top
10/19/2015 00:00 to 23:10 72.43 71.98 71.11 70.55 73.02 72.54
10/18/2015 23:00 to 22:10 72.24 74.21 74.19 74.49 74.69 76.72
10/18/2015 22:00 to 21:10 77.22 76.98 78.04 77.46 77.33 77.37
10/18/2015 21:00 to 20:10 78.41 77.67 78.80 79.01 78.45 77.59
10/18/2015 20:00 to 19:10 76.59 75.96 75.10 75.57 74.21 73.65
10/18/2015 19:00 to 18:10 75.29 73.26 74.27 72.82 73.88 76.87
10/18/2015 18:00 to 17:10 77.05 77.37 77.30 76.61 75.92 75.55
10/18/2015 17:00 to 16:10 76.01 75.31 73.67 74.25 75.01 76.85
10/18/2015 16:00 to 15:10 76.37 76.44 76.59 75.51 76.40 75.98
10/18/2015 15:00 to 14:10 76.11 76.96 76.33 75.75 76.14 75.98
10/18/2015 14:00 to 13:10 76.35 75.62 75.57 74.21 75.34 76.61
10/18/2015 13:00 to 12:10 78.04 77.54 77.22 76.92 76.35 77.35
10/18/2015 12:00 to 11:10 76.85 76.18 75.42 75.55 77.48 76.44
10/18/2015 11:00 to 10:10 77.05 76.85 77.24 77.09 77.35 77.37
10/18/2015 10:00 to 9:10 79.21 78.13 77.74 78.84 76.89 76.14
10/18/2015 09:00 to 8:10 77.15 77.07 76.79 76.31 76.11 75.21
10/18/2015 08:00 to 7:10 76.14 76.76 75.31 74.77 75.21 75.21
10/18/2015 07:00 to 6:10 75.12 75.68 75.57 74.95 74.12 75.49
10/18/2015 06:00 to 5:10 74.88 75.05 73.97 74.14 75.25 74.82
10/18/2015 05:00 to 4:10 73.58 73.69 73.32 73.17 74.51 73.80
10/18/2015 04:00 to 3:10 74.49 74.66 74.21 75.66 75.14 74.45
10/18/2015 03:00 to 2:10 74.56 75.18 75.47 73.54 73.58 73.41
10/18/2015 02:00 to 1:10 72.91 72.91 73.45 72.78 74.84 76.31
10/18/2015 01:00 to 0:10 73.58 73.26 74.01 73.97 75.31 75.96